User: anonymous   Login
Location: Ottawa
(45.4170°N, 75.7000°W)
Time: 07:28:30
(UTC-05:00)
Language:

Aureole 3 Rocket - Orbit

View from above orbital plane
View from above orbital plane
View from above satellite
View from above satellite

Ground track
Ground track

The orbit data is extracted from the following two-line orbital elements,

1 12849U 81094B   16342.16928936  .00000223  00000-0  19020-4 0  9999
2 12849  82.4916 314.0693 0903055 211.2024 143.2400 13.50015517716013
Epoch (UTC): 07 December 2016 04:03:46
Eccentricity: 0.0903055
inclination: 82.4916°
perigee height: 399 km
apogee height: 1745 km
right ascension of ascending node: 314.0693°
argument of perigee: 211.2024°
revolutions per day: 13.50015517
mean anomaly at epoch: 143.2400°
orbit number at epoch: 71601

The dashed part of the orbit path shows where the satellite is in the earth's shadow,  

DLR